[[{"header":{"parameterUnit":"m.s-1","parameterCategory":1,"la1":30.2991,"la2":30.254,"lo1":-89.0895,"lo2":-89.0444,"dy":0.0017,"dx":0.0017,"nx":28,"ny":28,"refTime":"2025-03-23T21:00:00:Z","depth":0,"parameterNumber":2,"parameterNumberName":"U-component_of_WINDS"},"data":[0,0,0,0,0,0,0,0,0,0,0,0,0,0,0,0,0,0,0,0,0,0,0,0,0,0,0,0,0,0,0,0,0,0,0,0,0,0,0,0,0,0,0,0,0,0,0,0,0,0,0,0,0,0,0,0,0,0,0.4913,0.4913,0,0.4899,0.4899,0.4899,0.4934,0.4935,0.4936,0.4937,0.492,0.4919,0.4917,0,0,0,0,0,0,0,0,0,0,0,0,0,0.4968,0.4967,0.4913,0.4913,0.4913,0.4899,0.4899,0.4899,0.4933,0.4935,0.4936,0.4937,0.4921,0.4919,0.4917,0,0,0,0,0,0,0,0,0,0,0,0,0,0.4948,0.4966,0.4913,0.4929,0.493,0.4899,0.4899,0.4899,0.4933,0.4935,0.4936,0.4938,0.4921,0.4919,0.4917,0.487,0,0,0.491,0.4909,0,0,0,0,0,0,0,0,0.4949,0.4946,0.4926,0.4927,0.4929,0.492,0.4912,0.4889,0.4933,0.4932,0.4937,0.4939,0.4919,0.4917,0.491,0.487,0.4869,0.491,0.4909,0.4908,0.4907,0,0,0,0,0,0,0,0.495,0.4946,0.4908,0.4926,0.4927,0.4935,0.4934,0.4908,0.4916,0.4932,0.4934,0.4932,0.492,0.4912,0.491,0.4869,0.491,0.4908,0.4907,0.4906,0.4787,0.4785,0,0,0,0,0,0,0.495,0.4947,0.4908,0.4907,0.4943,0.4933,0.4932,0.4921,0.4916,0.4917,0.4931,0.4934,0.4915,0.4913,0.491,0.4854,0.4908,0.4906,0.4905,0.4789,0.4786,0.4784,0,0,0,0,0,0,0.4951,0.4946,0.4909,0.4928,0.4924,0.493,0.4918,0.492,0.4913,0.4916,0.4917,0.4922,0.4917,0.4913,0.488,0.4854,0.4905,0.4903,0.4791,0.4788,0.4785,0.4741,0,0,0,0,0,0,0.4952,0.4946,0.4929,0.4927,0.4923,0.4879,0.4916,0.4918,0.4909,0.4913,0.4908,0.4909,0.4918,0.4883,0.4877,0.4851,0.4901,0.4793,0.479,0.4786,0.4745,0.4737,0.4731,0,0,0,0,0,0.4954,0.4917,0.4928,0.4923,0.4902,0.4878,0.4875,0.4886,0.4907,0.4889,0.4891,0.4909,0.4857,0.4879,0.4873,0.4846,0.4795,0.4791,0.4787,0.4748,0.4739,0.4731,0,0,0,0,0,0,0.4915,0.4917,0.4929,0.4891,0.4884,0.4884,0.4862,0.4876,0.4863,0.4867,0.4881,0.488,0.4843,0.4842,0.4866,0.48,0.4829,0.4824,0.4802,0.4793,0.4786,0.4787,0.4899,0,0,0,0,0,0.4902,0.4884,0.4886,0.4852,0.4848,0.4855,0.4845,0.4855,0.4848,0.4845,0.4844,0.4836,0.4818,0.4806,0.4789,0.4745,0.4744,0.4724,0.4717,0.4711,0.4705,0.468,0.4671,0.4771,0.4771,0.4771,0,0,0.4875,0.4874,0.4861,0.4844,0.484,0.4819,0.4852,0.4829,0.4814,0.4841,0.4809,0.4809,0.48,0.4761,0.4744,0.4758,0.4677,0.4705,0.4701,0.4698,0.4675,0.4665,0.4657,0.4768,0.4768,0.4769,0,0,0.4815,0.4813,0.4783,0.4778,0.4771,0.4776,0.4769,0.4767,0.4767,0.4736,0.4756,0.4737,0.4706,0.4699,0.4691,0.4627,0.4642,0.4621,0.4583,0.4559,0.4551,0.4544,0.4519,0.4511,0.4616,0.4616,0.4616,0,0.4782,0.4752,0.4766,0.4741,0.4732,0.4757,0.4726,0.4721,0.4708,0.4701,0.4718,0.4679,0.4675,0.4634,0.4618,0.4612,0.4603,0.4621,0.4551,0.4544,0.4538,0.4515,0.4505,0.4613,0.4614,0.4614,0.4614,0,0.4711,0.469,0.4667,0.4654,0.4643,0.4616,0.4625,0.4611,0.4622,0.4625,0.4591,0.4588,0.457,0.4561,0.4571,0.4521,0.453,0.4549,0.4578,0.4525,0.4504,0.4495,0.461,0.4611,0.4611,0.4612,0,0,0.4625,0.4621,0.4612,0.4606,0.46,0.4584,0.4557,0.454,0.4528,0.4519,0.4495,0.4468,0.4485,0.4476,0.4485,0.4464,0.4411,0.4485,0.4485,0.447,0.4354,0.4339,0.4328,0.4422,0.442,0.4419,0.4354,0,0.4565,0.4519,0.453,0.4485,0.4464,0.4487,0.4463,0.4456,0.4458,0.4441,0.4443,0.4422,0.4447,0.4442,0.4421,0.4422,0.4388,0.4427,0.4399,0.4398,0.4399,0.4317,0.4302,0.424,0.4346,0.4344,0.4343,0,0.4488,0.4476,0.4428,0.4424,0.4416,0.4394,0.438,0.4363,0.4355,0.4358,0.4347,0.4361,0.4332,0.4363,0.4324,0.435,0.4339,0.4338,0.4336,0.4332,0.4366,0.431,0.4221,0.4211,0.433,0.4331,0.4332,0,0.4428,0.44,0.4368,0.4362,0.4357,0.4341,0.4338,0.4332,0.4321,0.4308,0.43,0.4284,0.4275,0.4261,0.4268,0.429,0.4227,0.4259,0.4227,0.4227,0.4212,0.4213,0.4118,0.4207,0.4207,0.4207,0.4208,0,0.4359,0.4328,0.4341,0.432,0.4286,0.43,0.4265,0.4265,0.4259,0.4238,0.4257,0.4237,0.4249,0.4229,0.4235,0.42,0.4196,0.4196,0.4198,0.4194,0.4194,0.4186,0.419,0.4205,0.4205,0.4206,0.4206,0,0.4286,0.4294,0.4259,0.4258,0.4256,0.4231,0.4229,0.421,0.4213,0.4186,0.418,0.4185,0.4163,0.4169,0.4145,0.4149,0.4105,0.4113,0.4108,0.4109,0.4076,0.4079,0.3973,0.3959,0.4058,0.4057,0.4056,0,0.4241,0.4218,0.4214,0.4201,0.4197,0.4177,0.4166,0.4178,0.4165,0.4153,0.4135,0.4114,0.4099,0.4062,0.4062,0.4043,0.405,0.4014,0.4047,0.4043,0.4047,0.4048,0.4045,0.4007,0.4006,0.4005,0.4004,0,0.4159,0.4163,0.4147,0.4131,0.4117,0.4106,0.4095,0.4084,0.4095,0.4079,0.4057,0.4045,0.402,0.3999,0.3981,0.3977,0.3991,0.3994,0.3985,0.398,0.3977,0.3977,0.4088,0.3996,0.3997,0.3997,0.3998,0.3998,0.4098,0.4078,0.4071,0.4052,0.4045,0.4035,0.4016,0.4017,0.3999,0.398,0.3988,0.3962,0.3953,0.3931,0.3925,0.3904,0.3917,0.3905,0.3902,0.3898,0.3893,0.3982,0.3901,0.3901,0.3901,0.3901,0.3902,0,0.4015,0.4012,0.3994,0.3979,0.3964,0.398,0.3969,0.3954,0.3931,0.3922,0.3906,0.388,0.3859,0.3858,0.3838,0.3821,0.3827,0.3815,0.3816,0.3814,0.3883,0.3892,0.381,0.381,0.381,0.381,0.3811,0.3811,0.3971,0.3937,0.3941,0.3904,0.3901,0.3876,0.3868,0.3858,0.3851,0.3821,0.3804,0.3803,0.3797,0.3776,0.3758,0.3758,0.3749,0.3734,0.3736,0.3801,0.381,0.3818,0.3826,0.3732,0.3732,0.3669,0.3668,0.3668]},{"header":{"parameterUnit":"m.s-1","parameterCategory":1,"la1":30.2991,"la2":30.254,"lo1":-89.0895,"lo2":-89.0444,"dy":0.0017,"dx":0.0017,"nx":28,"ny":28,"refTime":"2025-03-23T21:00:00:Z","depth":0,"parameterNumber":3,"parameterNumberName":"V-component_of_WINDS"},"data":[0,0,0,0,0,0,0,0,0,0,0,0,0,0,0,0,0,0,0,0,0,0,0,0,0,0,0,0,0,0,0,0,0,0,0,0,0,0,0,0,0,0,0,0,0,0,0,0,0,0,0,0,0,0,0,0,0,0,0.8719,0.8719,0,0.8681,0.868,0.868,0.8628,0.8627,0.8626,0.8626,0.8586,0.8586,0.8585,0,0,0,0,0,0,0,0,0,0,0,0,0,0.8748,0.8748,0.8719,0.8719,0.8718,0.8681,0.868,0.868,0.8628,0.8627,0.8626,0.8625,0.8586,0.8586,0.8585,0,0,0,0,0,0,0,0,0,0,0,0,0,0.8725,0.8748,0.8719,0.8688,0.8685,0.8681,0.868,0.8679,0.8628,0.8627,0.8626,0.8625,0.8586,0.8586,0.8585,0.8608,0,0,0.8584,0.8584,0,0,0,0,0,0,0,0,0.8727,0.8724,0.8693,0.869,0.8687,0.8658,0.8676,0.8656,0.8629,0.865,0.8626,0.8624,0.8611,0.8608,0.8604,0.8607,0.8605,0.8584,0.8584,0.8584,0.8584,0,0,0,0,0,0,0,0.8728,0.8726,0.8704,0.8693,0.8689,0.8676,0.8671,0.8672,0.8638,0.8648,0.8644,0.864,0.8609,0.8604,0.8603,0.8604,0.8584,0.8584,0.8583,0.8583,0.8622,0.8623,0,0,0,0,0,0,0.8735,0.8727,0.8705,0.8703,0.8704,0.8677,0.8671,0.8668,0.8638,0.8632,0.8641,0.8638,0.8606,0.8603,0.8601,0.8624,0.8584,0.8583,0.8583,0.8621,0.8623,0.8624,0,0,0,0,0,0,0.8736,0.8733,0.8707,0.8714,0.871,0.8677,0.8675,0.8668,0.8664,0.8633,0.8627,0.8643,0.8605,0.8602,0.8607,0.8622,0.8583,0.8583,0.8619,0.8621,0.8623,0.8672,0,0,0,0,0,0,0.8737,0.8734,0.8742,0.8715,0.8709,0.8713,0.8676,0.8668,0.8663,0.8658,0.8633,0.8627,0.8603,0.8607,0.8606,0.8621,0.8582,0.8618,0.862,0.8623,0.8669,0.8676,0.8681,0,0,0,0,0,0.8738,0.8758,0.8743,0.8741,0.8719,0.8714,0.8711,0.8683,0.8665,0.8673,0.8653,0.8628,0.8621,0.8608,0.8607,0.8621,0.8617,0.862,0.8622,0.8666,0.8674,0.8681,0,0,0,0,0,0,0.8788,0.8754,0.8737,0.8749,0.8735,0.8706,0.8715,0.8693,0.8684,0.868,0.8646,0.864,0.8649,0.8636,0.8622,0.8641,0.8615,0.8618,0.8649,0.8657,0.8663,0.8664,0.8582,0,0,0,0,0,0.8801,0.88,0.877,0.8783,0.8777,0.8747,0.8744,0.8724,0.8708,0.8702,0.8682,0.8668,0.8662,0.8659,0.8652,0.8668,0.866,0.8677,0.8683,0.8688,0.869,0.8696,0.8702,0.8633,0.8633,0.8633,0,0,0.8827,0.8808,0.8809,0.8793,0.8779,0.8778,0.8743,0.8743,0.8742,0.8702,0.8704,0.869,0.8672,0.8681,0.8685,0.8671,0.8708,0.8692,0.8696,0.8695,0.8699,0.8706,0.8712,0.8635,0.8635,0.8635,0,0,0.8873,0.8859,0.8868,0.8855,0.8836,0.8816,0.8818,0.8792,0.8781,0.8784,0.8753,0.8751,0.8743,0.873,0.8723,0.8764,0.874,0.8763,0.8794,0.88,0.8805,0.8809,0.8822,0.8827,0.8766,0.8766,0.8766,0,0.8907,0.8904,0.8875,0.8877,0.887,0.8834,0.8842,0.8832,0.8811,0.8807,0.8792,0.878,0.8765,0.8771,0.8781,0.8777,0.8777,0.8765,0.8807,0.8811,0.8815,0.8826,0.8832,0.8768,0.8768,0.8768,0.8768,0,0.8946,0.8945,0.8955,0.8935,0.893,0.8935,0.8906,0.8904,0.8885,0.8867,0.8869,0.885,0.8838,0.8839,0.882,0.8841,0.8833,0.8813,0.8785,0.8824,0.8835,0.8839,0.8772,0.8771,0.8771,0.877,0,0,0.9021,0.8986,0.899,0.898,0.8956,0.8954,0.8958,0.8946,0.8944,0.8932,0.8933,0.8926,0.8907,0.8899,0.8879,0.8884,0.8916,0.8863,0.8862,0.8872,0.8936,0.8949,0.8955,0.8901,0.8902,0.8902,0.8936,0,0.9061,0.9064,0.9039,0.9049,0.9046,0.9013,0.9016,0.9001,0.8984,0.898,0.8961,0.8956,0.8933,0.8927,0.8931,0.8911,0.8928,0.8909,0.89,0.89,0.8903,0.8961,0.8975,0.9008,0.8941,0.8941,0.8942,0,0.9107,0.9096,0.9107,0.9081,0.9079,0.9082,0.9069,0.9066,0.9048,0.9035,0.9026,0.9003,0.9004,0.8979,0.8979,0.8967,0.8962,0.8952,0.8953,0.8949,0.8922,0.8956,0.9019,0.9023,0.8948,0.8948,0.8947,0,0.9158,0.9147,0.9151,0.9144,0.9115,0.9118,0.9106,0.9087,0.9082,0.907,0.9066,0.9055,0.9049,0.904,0.9014,0.8999,0.9017,0.8991,0.9005,0.9005,0.9008,0.9008,0.9068,0.9009,0.9009,0.9009,0.9009,0,0.9203,0.921,0.9173,0.9175,0.9182,0.9152,0.916,0.9144,0.9128,0.9126,0.9098,0.9096,0.9063,0.9058,0.9038,0.904,0.9038,0.9027,0.9021,0.9028,0.9029,0.9023,0.9019,0.901,0.901,0.901,0.901,0,0.926,0.9236,0.9238,0.921,0.9204,0.921,0.9186,0.9187,0.9169,0.9167,0.9165,0.9136,0.9128,0.9102,0.9089,0.9075,0.9083,0.9073,0.9088,0.9084,0.9099,0.9097,0.9155,0.9161,0.9101,0.9101,0.9102,0,0.9289,0.9294,0.9267,0.9264,0.9253,0.9249,0.9243,0.9214,0.9209,0.919,0.9192,0.9183,0.9173,0.9163,0.914,0.913,0.9118,0.9139,0.9116,0.9123,0.9115,0.9115,0.9114,0.9143,0.9144,0.9145,0.9146,0,0.9343,0.9331,0.9324,0.9312,0.9306,0.9295,0.9283,0.9282,0.925,0.9246,0.9238,0.9231,0.9216,0.9207,0.9192,0.9179,0.9156,0.9153,0.9156,0.9162,0.917,0.9163,0.9099,0.9152,0.9151,0.9151,0.915,0.915,0.9386,0.9388,0.9369,0.9361,0.9349,0.9339,0.9337,0.9319,0.9312,0.9298,0.9282,0.9276,0.9258,0.9236,0.9225,0.9219,0.9207,0.9211,0.9211,0.9212,0.9214,0.9173,0.9216,0.9216,0.9216,0.9216,0.9216,0,0.9436,0.9423,0.9416,0.94,0.9394,0.9375,0.936,0.9356,0.9351,0.9336,0.9327,0.9318,0.9308,0.9285,0.9273,0.9273,0.9262,0.927,0.9269,0.9266,0.9227,0.9225,0.9279,0.9279,0.9279,0.9279,0.9279,0.9279,0.9462,0.9463,0.9449,0.9444,0.943,0.9424,0.9417,0.9407,0.9395,0.9385,0.9377,0.9363,0.9344,0.933,0.932,0.9314,0.9309,0.9321,0.9311,0.9275,0.9269,0.9263,0.9261,0.9321,0.9321,0.9349,0.9349,0.935]}]]